Previsão horária em Alikonovka

Hoje, 22 Junho, Terça-feira

Tempo Temperatura Precipitação Vento Pressão Humidade
00:00 +19°C° 0 mm 2 m/s 688 mmHg 81%
01:00 +19°C° 0 mm 2 m/s 688 mmHg 78%
02:00 +19°C° 0 mm 2 m/s 688 mmHg 75%
03:00 +19°C° 0 mm 2 m/s 687 mmHg 72%
04:00 +20°C° 0 mm 2 m/s 688 mmHg 72%
05:00 +21°C° 0 mm 1 m/s 688 mmHg 72%
06:00 +22°C° 0 mm 1 m/s 688 mmHg 72%
07:00 +24°C° 0 mm 1 m/s 688 mmHg 70%
08:00 +25°C° 0 mm 1 m/s 688 mmHg 67%
09:00 +27°C° 0 mm 1 m/s 689 mmHg 64%
10:00 +27°C° 0 mm 2 m/s 689 mmHg 65%
11:00 +28°C° 0 mm 2 m/s 689 mmHg 65%
12:00 +28°C° 0 mm 3 m/s 689 mmHg 66%
13:00 +28°C° 0.1 mm 3 m/s 689 mmHg 67%
14:00 +28°C° 0.1 mm 3 m/s 689 mmHg 67%
15:00 +28°C° 0 mm 3 m/s 689 mmHg 68%
16:00 +27°C° 0.1 mm 2 m/s 689 mmHg 72%
17:00 +27°C° 0.1 mm 2 m/s 689 mmHg 75%
18:00 +26°C° 0.1 mm 1 m/s 689 mmHg 79%
19:00 +25°C° 0.3 mm 1 m/s 689 mmHg 83%
20:00 +23°C° 0.3 mm 2 m/s 689 mmHg 88%
21:00 +21°C° 0.3 mm 2 m/s 690 mmHg 92%
22:00 +21°C° 0.1 mm 2 m/s 690 mmHg 92%
23:00 +20°C° 0.1 mm 2 m/s 690 mmHg 92%

Amanhã, 23 Junho, Quarta-feira

Tempo Temperatura Precipitação Vento Pressão Humidade
00:00 +20°C° 0.1 mm 2 m/s 690 mmHg 92%
01:00 +20°C° 0 mm 2 m/s 690 mmHg 91%
02:00 +20°C° 0 mm 2 m/s 690 mmHg 90%
03:00 +19°C° 0 mm 2 m/s 689 mmHg 89%
04:00 +20°C° 0 mm 2 m/s 689 mmHg 87%
05:00 +21°C° 0 mm 2 m/s 689 mmHg 85%
06:00 +23°C° 0 mm 2 m/s 689 mmHg 82%
07:00 +24°C° 0 mm 2 m/s 690 mmHg 79%
08:00 +25°C° 0 mm 2 m/s 690 mmHg 75%
09:00 +27°C° 0 mm 2 m/s 690 mmHg 72%
10:00 +27°C° 0 mm 2 m/s 690 mmHg 72%
11:00 +28°C° 0 mm 2 m/s 690 mmHg 72%
12:00 +28°C° 0 mm 3 m/s 690 mmHg 71%
13:00 +28°C° 0.1 mm 3 m/s 690 mmHg 74%
14:00 +27°C° 0.1 mm 2 m/s 690 mmHg 77%
15:00 +26°C° 0.1 mm 2 m/s 690 mmHg 80%
16:00 +26°C° 0.3 mm 2 m/s 691 mmHg 82%
17:00 +25°C° 0.3 mm 1 m/s 691 mmHg 84%
18:00 +25°C° 0.3 mm 1 m/s 691 mmHg 86%
19:00 +24°C° 0.4 mm 1 m/s 691 mmHg 88%
20:00 +23°C° 0.4 mm 1 m/s 691 mmHg 90%
21:00 +22°C° 0.4 mm 1 m/s 691 mmHg 91%
22:00 +22°C° 0.1 mm 1 m/s 690 mmHg 91%
23:00 +22°C° 0.1 mm 1 m/s 690 mmHg 90%

Depois de amanhã, 24 Junho, Quinta-feira

Tempo Temperatura Precipitação Vento Pressão Humidade
00:00 +21°C° 0.1 mm 1 m/s 690 mmHg 89%
01:00 +21°C° 0 mm 1 m/s 690 mmHg 89%
02:00 +20°C° 0 mm 1 m/s 690 mmHg 89%
03:00 +19°C° 0 mm 2 m/s 690 mmHg 89%
04:00 +20°C° 0 mm 2 m/s 690 mmHg 88%
05:00 +21°C° 0 mm 1 m/s 690 mmHg 86%
06:00 +22°C° 0 mm 1 m/s 690 mmHg 85%
07:00 +23°C° 0 mm 2 m/s 690 mmHg 83%
08:00 +24°C° 0 mm 2 m/s 690 mmHg 80%
09:00 +25°C° 0 mm 2 m/s 691 mmHg 77%
10:00 +26°C° 0.1 mm 2 m/s 691 mmHg 78%
11:00 +26°C° 0.1 mm 2 m/s 691 mmHg 78%
12:00 +26°C° 0.1 mm 2 m/s 691 mmHg 79%
13:00 +26°C° 0.1 mm 2 m/s 691 mmHg 79%
14:00 +26°C° 0.1 mm 2 m/s 691 mmHg 80%
15:00 +26°C° 0.1 mm 2 m/s 691 mmHg 81%
16:00 +25°C° 0.2 mm 1 m/s 691 mmHg 82%
17:00 +25°C° 0.2 mm 1 m/s 691 mmHg 83%
18:00 +25°C° 0.2 mm 1 m/s 691 mmHg 85%
19:00 +24°C° 0.1 mm 1 m/s 691 mmHg 87%
20:00 +23°C° 0.1 mm 1 m/s 691 mmHg 89%
21:00 +22°C° 0.1 mm 1 m/s 691 mmHg 91%
22:00 +21°C° 0.1 mm 1 m/s 690 mmHg 90%
23:00 +21°C° 0.1 mm 1 m/s 690 mmHg 90%

25 Junho, Sexta-feira

Tempo Temperatura Precipitação Vento Pressão Humidade
00:00 +21°C° 0.1 mm 1 m/s 690 mmHg 89%
01:00 +20°C° 0 mm 2 m/s 690 mmHg 88%
02:00 +19°C° 0 mm 2 m/s 689 mmHg 87%
03:00 +19°C° 0 mm 2 m/s 689 mmHg 86%
04:00 +20°C° 0 mm 2 m/s 689 mmHg 85%
05:00 +21°C° 0 mm 1 m/s 689 mmHg 84%
06:00 +22°C° 0 mm 1 m/s 690 mmHg 83%
07:00 +23°C° 0 mm 2 m/s 690 mmHg 82%
08:00 +24°C° 0 mm 2 m/s 690 mmHg 81%
09:00 +25°C° 0 mm 2 m/s 690 mmHg 80%
10:00 +25°C° 0.1 mm 2 m/s 690 mmHg 79%
11:00 +25°C° 0.1 mm 2 m/s 690 mmHg 79%
12:00 +26°C° 0.1 mm 3 m/s 690 mmHg 79%
13:00 +25°C° 0.3 mm 2 m/s 690 mmHg 80%
14:00 +25°C° 0.3 mm 2 m/s 690 mmHg 82%
15:00 +25°C° 0.3 mm 2 m/s 690 mmHg 84%
16:00 +24°C° 0.3 mm 2 m/s 690 mmHg 85%
17:00 +24°C° 0.3 mm 2 m/s 690 mmHg 87%
18:00 +24°C° 0.3 mm 1 m/s 690 mmHg 88%
19:00 +23°C° 0.1 mm 2 m/s 689 mmHg 89%
20:00 +21°C° 0.1 mm 2 m/s 689 mmHg 89%
21:00 +20°C° 0.1 mm 2 m/s 689 mmHg 89%
22:00 +20°C° 0.1 mm 2 m/s 689 mmHg 88%
23:00 +20°C° 0.1 mm 2 m/s 689 mmHg 87%

26 Junho, Sábado

Tempo Temperatura Precipitação Vento Pressão Humidade
00:00 +20°C° 0.1 mm 2 m/s 689 mmHg 86%
01:00 +20°C° 0 mm 2 m/s 688 mmHg 86%
02:00 +19°C° 0 mm 2 m/s 688 mmHg 86%
03:00 +19°C° 0 mm 2 m/s 688 mmHg 86%
04:00 +21°C° 0 mm 1 m/s 688 mmHg 84%
05:00 +21°C° 0 mm 1 m/s 688 mmHg 83%
06:00 +22°C° 0 mm 1 m/s 688 mmHg 82%
07:00 +22°C° 0 mm 1 m/s 689 mmHg 83%
08:00 +23°C° 0 mm 2 m/s 689 mmHg 84%
09:00 +24°C° 0 mm 2 m/s 689 mmHg 84%
10:00 +24°C° 0.2 mm 2 m/s 689 mmHg 84%
11:00 +25°C° 0.2 mm 2 m/s 689 mmHg 83%
12:00 +25°C° 0.2 mm 2 m/s 689 mmHg 82%
13:00 +25°C° 0.1 mm 2 m/s 689 mmHg 81%
14:00 +26°C° 0.1 mm 2 m/s 689 mmHg 80%
15:00 +26°C° 0.1 mm 2 m/s 689 mmHg 79%
16:00 +25°C° 0.3 mm 1 m/s 689 mmHg 82%
17:00 +25°C° 0.3 mm 1 m/s 689 mmHg 85%
18:00 +24°C° 0.3 mm 1 m/s 689 mmHg 88%
19:00 +23°C° 0.2 mm 1 m/s 689 mmHg 89%
20:00 +23°C° 0.2 mm 1 m/s 689 mmHg 90%
21:00 +22°C° 0.2 mm 1 m/s 689 mmHg 91%
22:00 +20°C° 0.4 mm 2 m/s 689 mmHg 91%
23:00 +20°C° 0.4 mm 2 m/s 689 mmHg 90%

27 Junho, Domingo

Tempo Temperatura Precipitação Vento Pressão Humidade
00:00 +19°C° 0.4 mm 2 m/s 688 mmHg 90%
01:00 +19°C° 0.2 mm 2 m/s 689 mmHg 88%
02:00 +19°C° 0.2 mm 2 m/s 689 mmHg 85%
03:00 +20°C° 0.2 mm 1 m/s 689 mmHg 83%
04:00 +21°C° 0 mm 1 m/s 689 mmHg 83%
05:00 +21°C° 0 mm 1 m/s 689 mmHg 84%
06:00 +21°C° 0 mm 1 m/s 689 mmHg 84%
07:00 +23°C° 0 mm 1 m/s 690 mmHg 83%
08:00 +24°C° 0 mm 2 m/s 690 mmHg 81%
09:00 +25°C° 0 mm 2 m/s 690 mmHg 79%
10:00 +25°C° 0.1 mm 2 m/s 690 mmHg 79%
11:00 +26°C° 0.1 mm 2 m/s 690 mmHg 78%
12:00 +26°C° 0.1 mm 2 m/s 690 mmHg 77%
13:00 +26°C° 1.1 mm 2 m/s 690 mmHg 78%
14:00 +26°C° 1.1 mm 2 m/s 690 mmHg 79%
15:00 +26°C° 1.1 mm 2 m/s 690 mmHg 80%
16:00 +25°C° 3.9 mm 1 m/s 690 mmHg 84%
17:00 +24°C° 3.9 mm 1 m/s 690 mmHg 88%
18:00 +23°C° 3.9 mm 1 m/s 691 mmHg 92%
19:00 +22°C° 0.3 mm 1 m/s 691 mmHg 91%
20:00 +20°C° 0.3 mm 2 m/s 690 mmHg 90%
21:00 +20°C° 0.3 mm 2 m/s 690 mmHg 89%
22:00 +19°C° 0 mm 2 m/s 690 mmHg 87%
23:00 +19°C° 0 mm 2 m/s 690 mmHg 85%
Mostrar mais